| time (UTC) | temp F | wind direction | speed MPH | gust MPH | rain 1hr in | rain 24hr in | rain mn in | humidity % | barometer mb |
| 20260504100105 | 54 | 197 | 8.0 | 13.0 | 0.00 | 0.00 | 0.00 | 67 | 1009.6 |
| 20260504090119 | 54 | 188 | 7.0 | 14.0 | 0.00 | 0.00 | 0.00 | 66 | 1009.7 |
| 20260504081557 | 54 | 156 | 8.0 | 13.0 | 0.00 | 0.00 | 0.00 | 64 | 1009.9 |
| 20260504060103 | 55 | 184 | 9.0 | 15.0 | 0.00 | 0.00 | 0.00 | 60 | 1011.4 |
| 20260504050106 | 56 | 163 | 9.0 | 18.0 | 0.00 | 0.00 | 0.00 | 58 | 1011.8 |
| 20260504044604 | 56 | 165 | 11.0 | 18.0 | 0.00 | 0.00 | 0.00 | 58 | 1011.7 |
| 20260504043059 | 56 | 198 | 9.0 | 18.0 | 0.00 | 0.00 | 0.00 | 57 | 1011.9 |
| 20260504041559 | 56 | 201 | 8.0 | 15.0 | 0.00 | 0.00 | 0.00 | 57 | 1012.0 |
| 20260504040107 | 56 | 184 | 10.0 | 21.0 | 0.00 | 0.00 | 0.00 | 57 | 1012.2 |
| 20260504034605 | 56 | 193 | 8.0 | 19.0 | 0.00 | 0.00 | 0.00 | 56 | 1012.4 |
| 20260504033114 | 57 | 218 | 11.0 | 18.0 | 0.00 | 0.00 | 0.00 | 55 | 1012.6 |
| 20260504031603 | 57 | 180 | 11.0 | 18.0 | 0.00 | 0.00 | 0.00 | 54 | 1012.6 |
| 20260504030059 | 58 | 191 | 11.0 | 20.0 | 0.00 | 0.00 | 0.00 | 53 | 1012.7 |
| 20260504024605 | 58 | 180 | 10.0 | 18.0 | 0.00 | 0.00 | 0.00 | 52 | 1012.6 |
| 20260504023057 | 58 | 180 | 10.0 | 17.0 | 0.00 | 0.00 | 0.00 | 52 | 1012.7 |
| 20260504021556 | 58 | 223 | 11.0 | 17.0 | 0.00 | 0.00 | 0.00 | 52 | 1012.7 |
| 20260504020058 | 58 | 215 | 11.0 | 18.0 | 0.00 | 0.00 | 0.00 | 51 | 1012.3 |
| 20260504014603 | 58 | 195 | 10.0 | 18.0 | 0.00 | 0.00 | 0.00 | 50 | 1012.5 |
| 20260504013057 | 58 | 218 | 10.0 | 19.0 | 0.00 | 0.00 | 0.00 | 49 | 1012.6 |
| 20260504011559 | 59 | 207 | 9.0 | 16.0 | 0.00 | 0.00 | 0.00 | 48 | 1012.6 |
| 20260504010101 | 59 | 176 | 6.0 | 11.0 | 0.00 | 0.00 | 0.00 | 48 | 1012.7 |
| 20260504004602 | 59 | 241 | 5.0 | 13.0 | 0.00 | 0.00 | 0.00 | 46 | 1013.0 |
| 20260504003056 | 59 | 210 | 5.0 | 12.0 | 0.00 | 0.00 | 0.00 | 45 | 1012.8 |
| 20260504001612 | 59 | 210 | 6.0 | 12.0 | 0.00 | 0.00 | 0.00 | 45 | 1012.7 |
| 20260504000056 | 60 | 188 | 8.0 | 14.0 | 0.00 | 0.00 | 0.00 | 44 | 1012.3 |
| 20260503234556 | 60 | 225 | 7.0 | 13.0 | 0.00 | 0.00 | 0.00 | 44 | 1012.5 |
| 20260503233141 | 60 | 202 | 10.0 | 19.0 | 0.00 | 0.00 | 0.00 | 43 | 1012.3 |
| 20260503231556 | 60 | 207 | 6.0 | 15.0 | 0.00 | 0.00 | 0.00 | 43 | 1012.4 |
| 20260503230059 | 60 | 211 | 8.0 | 15.0 | 0.00 | 0.00 | 0.00 | 42 | 1012.9 |
| 20260503224556 | 60 | 211 | 10.0 | 19.0 | 0.00 | 0.00 | 0.00 | 41 | 1013.1 |
| 20260503223100 | 60 | 198 | 8.0 | 15.0 | 0.00 | 0.00 | 0.00 | 41 | 1013.3 |
| 20260503221559 | 60 | 210 | 10.0 | 20.0 | 0.00 | 0.00 | 0.00 | 41 | 1013.8 |
| 20260503220113 | 61 | 263 | 10.0 | 26.0 | 0.00 | 0.00 | 0.00 | 40 | 1013.8 |
| 20260503214559 | 61 | 216 | 11.0 | 21.0 | 0.00 | 0.00 | 0.00 | 39 | 1014.1 |
| 20260503213100 | 62 | 190 | 10.0 | 22.0 | 0.00 | 0.00 | 0.00 | 39 | 1014.5 |
| 20260503211610 | 61 | 203 | 12.0 | 21.0 | 0.00 | 0.00 | 0.00 | 39 | 1014.3 |
| 20260503210059 | 61 | 224 | 11.0 | 23.0 | 0.00 | 0.00 | 0.00 | 41 | 1014.2 |
| 20260503204602 | 61 | 223 | 11.0 | 21.0 | 0.00 | 0.00 | 0.00 | 41 | 1014.5 |
| 20260503203100 | 61 | 227 | 10.0 | 23.0 | 0.00 | 0.00 | 0.00 | 42 | 1014.5 |
| 20260503201557 | 60 | 239 | 15.0 | 25.0 | 0.00 | 0.00 | 0.00 | 39 | 1014.6 |
| 20260503200056 | 60 | 196 | 14.0 | 23.0 | 0.00 | 0.00 | 0.00 | 40 | 1014.9 |
| 20260503194557 | 61 | 235 | 8.0 | 22.0 | 0.00 | 0.00 | 0.00 | 41 | 1015.1 |
| 20260503193115 | 60 | 177 | 12.0 | 24.0 | 0.00 | 0.00 | 0.00 | 39 | 1015.5 |
| 20260503191600 | 60 | 263 | 9.0 | 26.0 | 0.00 | 0.00 | 0.00 | 40 | 1016.0 |
| 20260503190058 | 59 | 208 | 10.0 | 20.0 | 0.00 | 0.00 | 0.00 | 39 | 1016.0 |
| 20260503184559 | 59 | 217 | 11.0 | 22.0 | 0.00 | 0.00 | 0.00 | 42 | 1016.3 |
| 20260503183105 | 59 | 209 | 13.0 | 26.0 | 0.00 | 0.00 | 0.00 | 42 | 1016.5 |
| 20260503181622 | 58 | 238 | 12.0 | 23.0 | 0.00 | 0.00 | 0.00 | 40 | 1016.6 |
| 20260503180134 | 58 | 176 | 8.0 | 20.0 | 0.00 | 0.00 | 0.00 | 41 | 1016.8 |
| 20260503174559 | 58 | 182 | 10.0 | 19.0 | 0.00 | 0.00 | 0.00 | 43 | 1016.9 |
| 20260503173102 | 57 | 242 | 8.0 | 22.0 | 0.00 | 0.00 | 0.00 | 43 | 1017.4 |
| 20260503171558 | 57 | 210 | 13.0 | 20.0 | 0.00 | 0.00 | 0.00 | 45 | 1017.5 |
| 20260503170104 | 56 | 243 | 10.0 | 21.0 | 0.00 | 0.00 | 0.00 | 42 | 1017.9 |
| 20260503150105 | 52 | 229 | 8.0 | 16.0 | 0.00 | 0.00 | 0.00 | 53 | 1019.2 |
| 20260503120109 | 37 | 229 | 4.0 | 7.0 | 0.00 | 0.00 | 0.00 | 82 | 1019.1 |